Content
SEND FEEDBACK

Daily
Averages
Monthly
Summary
United States of America

JACKSON - YARBOROUGH PARK, MISSISSIPPI


Home > North America > United States > Mississippi
Elevation: 0 feet     Latitude: 32 18N     Longitude: 090 18W

WEATHER
 
SELECT A DAY
Number of Records: 151,426;   Date Range: 7/20/00 - 12/19/14
 
SHARE

PRINT THIS DATA

[ ← Previous Day ]
WEATHER ALMANAC - JANUARY 31, 2013
[ Next Day → ]
[ °C ]   °F
Weather ElementAverageHighLow
Temperature47.2 °F57.9 °F (1:53 pm)35.1 °F (4:53 am)
Dewpoint26.2 °F30 °F (7:53 am)21 °F (1:53 pm)
Humidity48.5 %76 % (2:53 am)24 % (1:53 pm)
Barometer30.20 in30.27 in (9:53 am)30.14 in (1:53 am)
Wind Speed6.6 mph13.8 mph (11:53 am)
Wind Gust20.7 mph (1:53 pm)
Weather ElementAverage
Visibility10 mi
Wind DirectionSSW (199 °)

Weather ElementTotal
Precipitation---
Heating Degree Days18.5 (Base 65)
Averaged from 20 records on January 31, 2013
WEATHER CONDITIONS BREAKOUT
WIND DIRECTION BREAKOUT
WEATHER BY HOUR - JANUARY 31, 2013
[ °C ]   °F
Local TimeTemperatureDewpointHumidityBarometerVisibilityWind DirectionWind SpeedGust SpeedPrecipitationEventsConditions
1:53 AM37.0 °F28.9 °F73 %30.14 in10.0 miWest (270°)4.6 mphClear
2:53 AM36.0 °F28.9 °F76 %30.16 in10.0 miWest (260°)3.5 mphClear
3:53 AM36.0 °F28.0 °F73 %30.15 in10.0 miCalmClear
4:53 AM35.1 °F28.0 °F76 %30.16 in10.0 miCalmClear
5:53 AM35.1 °F28.0 °F76 %30.16 in10.0 miWest (280°)5.8 mphClear
6:53 AM35.1 °F28.0 °F76 %30.19 in10.0 miCalmClear
7:53 AM37.0 °F30.0 °F76 %30.21 in10.0 miCalmClear
9:53 AM48.9 °F28.9 °F46 %30.27 in10.0 miWest (260°)10.4 mphClear
10:53 AM52.0 °F26.1 °F37 %30.25 in10.0 miWest (270°)11.5 mph18.4 mphClear
11:53 AM55.0 °F26.1 °F33 %30.24 in10.0 miWNW (290°)13.8 mphClear
12:53 PM57.0 °F24.1 °F28 %30.22 in10.0 miWest (260°)11.5 mph18.4 mphClear
1:53 PM57.9 °F21.0 °F24 %30.20 in10.0 miWest (260°)12.7 mph20.7 mphClear
2:53 PM57.9 °F21.9 °F25 %30.19 in10.0 miWest (260°)8.1 mphClear
3:53 PM57.9 °F23.0 °F26 %30.17 in10.0 miSSW (210°)11.5 mphClear
4:53 PM57.0 °F21.9 °F26 %30.18 in10.0 miSW (230°)8.1 mphClear
5:53 PM52.0 °F25.0 °F35 %30.19 in10.0 miSW (220°)4.6 mphClear
6:53 PM51.1 °F25.0 °F36 %30.19 in10.0 miSW (220°)3.5 mphClear
8:53 PM48.0 °F27.0 °F44 %30.23 in10.0 miSSW (200°)4.6 mphClear
9:53 PM50.0 °F27.0 °F41 %30.26 in10.0 miWSW (240°)9.2 mphClear
10:53 PM48.9 °F27.0 °F43 %30.27 in10.0 miWSW (250°)9.2 mphClear
Hourly data recorded from KHKS, located miles away from Jackson - Yarborough Park, Mississippi







STORIES FROM OUR PARTNERS